Find Transat

NORAD ID: 10457 Int'l Des: 1977-106 Owner: NAVAIR Country: US operational
LEOCIRCULARPOLAR

实时位置

正在加载3D地球...

关于 Transat

正在加载描述...

即将过境

Passes for default location (London). Set your location on the main map for personalized predictions.

高度历史

Loading altitude history...

两行轨道根数

1 10457U 77106A 26132.60767647 .00000053 00000-0 67764-4 0 9997
2 10457 89.6479 73.1848 0027266 115.9828 57.3996 13.48966901387778
Epoch: May 12, 2026 • Age: 4 hours

当前状态

高度 1104.7 km
速度 7.29 km/s
星下点 -51.21°S, 106.66°E
发射日期 Oct 28, 1977
运行时间 48.5 years
类型 other

技术详情

分类 Payload
质量 92.00 kg
干质量 92.00 kg
总质量 92.00 kg
长度 1.00 m
直径 0.30 m
跨度 30.00 m
形状 Oct Cyl + 4 Pan + Ant
制造商 APL
平台类型 Transit 5
阶段状态 In Orbit
所有者/国家 NAVAIR/US

Most Searched